Tracking 31011 objects as of 13-Jul-2025
HD Live streaming from Space Station
objects crossing your sky now

STARLINK-30891

Track STARLINK-30891 now!
10-day predictions
STARLINK-30891 is classified as:


NORAD ID: 58367
Int'l Code: 2023-177S
Perigee: 565.2 km
Apogee: 567.3 km
Inclination: 43.0 °
Period: 95.8 minutes
Semi major axis: 6937 km
RCS: Unknown
Launch date: November 18, 2023
Source: United States (US)
Launch site: AIR FORCE EASTERN TEST RANGE (AFETR)
Your satellite tracking list
Your tracking list is empty




NASA's NSSDC Master Catalog

Two Line Element Set (TLE):
1 58367U 23177S   25193.36078140  .00000166  00000-0  27374-4 0  9998
2 58367  43.0023 217.5039 0001511 282.3761  77.6912 15.02534317 92001
Source of the keplerian elements: AFSPC